TimeEDT,TemperatureF,Dew PointF,Humidity,Sea Level PressureIn,VisibilityMPH,Wind Direction,Wind SpeedMPH,Gust SpeedMPH,PrecipitationIn,Events,Conditions,WindDirDegrees,DateUTC
12:15 AM,51.8,48.2,88,29.94,10.0,Calm,Calm,-,N/A,,Clear,0,2012-10-17 04:15:00
12:35 AM,51.8,48.2,88,29.94,10.0,Calm,Calm,-,N/A,,Clear,0,2012-10-17 04:35:00
12:55 AM,51.8,48.2,88,29.94,10.0,Calm,Calm,-,N/A,,Clear,0,2012-10-17 04:55:00
1:35 AM,50.0,48.2,94,29.93,10.0,Calm,Calm,-,N/A,,Clear,0,2012-10-17 05:35:00
1:55 AM,50.0,48.2,94,29.93,10.0,Calm,Calm,-,N/A,,Clear,0,2012-10-17 05:55:00
2:15 AM,50.0,48.2,94,29.94,10.0,Calm,Calm,-,N/A,,Clear,0,2012-10-17 06:15:00
2:35 AM,48.2,48.2,100,29.94,10.0,Calm,Calm,-,N/A,,Clear,0,2012-10-17 06:35:00
2:55 AM,48.2,46.4,93,29.94,10.0,Calm,Calm,-,N/A,,Clear,0,2012-10-17 06:55:00
3:15 AM,48.2,46.4,93,29.94,10.0,Calm,Calm,-,N/A,,Clear,0,2012-10-17 07:15:00
3:55 AM,48.2,46.4,93,29.93,10.0,Calm,Calm,-,N/A,,Clear,0,2012-10-17 07:55:00
4:15 AM,48.2,48.2,100,29.93,10.0,Calm,Calm,-,N/A,,Clear,0,2012-10-17 08:15:00
4:35 AM,50.0,48.2,94,29.92,10.0,Calm,Calm,-,N/A,,Clear,0,2012-10-17 08:35:00
4:55 AM,48.2,46.4,93,29.93,10.0,Calm,Calm,-,N/A,,Clear,0,2012-10-17 08:55:00
5:15 AM,48.2,48.2,100,29.94,10.0,Calm,Calm,-,N/A,,Clear,0,2012-10-17 09:15:00
5:35 AM,48.2,48.2,100,29.94,10.0,Calm,Calm,-,N/A,,Clear,0,2012-10-17 09:35:00
5:55 AM,50.0,48.2,94,29.96,3.0,Calm,Calm,-,N/A,,Clear,0,2012-10-17 09:55:00
6:15 AM,50.0,48.2,94,29.96,10.0,Calm,Calm,-,N/A,,Clear,0,2012-10-17 10:15:00
6:35 AM,50.0,48.2,94,29.96,10.0,Calm,Calm,-,N/A,,Clear,0,2012-10-17 10:35:00
6:55 AM,50.0,48.2,94,29.96,10.0,Calm,Calm,-,N/A,,Clear,0,2012-10-17 10:55:00
7:15 AM,50.0,48.2,94,29.96,10.0,Calm,Calm,-,N/A,,Clear,0,2012-10-17 11:15:00
7:35 AM,51.8,48.2,88,29.97,10.0,Calm,Calm,-,N/A,,Clear,0,2012-10-17 11:35:00
7:55 AM,48.2,48.2,100,29.98,10.0,Calm,Calm,-,N/A,,Clear,0,2012-10-17 11:55:00
8:15 AM,50.0,48.2,94,29.99,10.0,Calm,Calm,-,N/A,,Clear,0,2012-10-17 12:15:00
8:35 AM,51.8,50.0,94,30.00,10.0,Calm,Calm,-,N/A,,Clear,0,2012-10-17 12:35:00
8:55 AM,51.8,50.0,94,30.00,10.0,Calm,Calm,-,N/A,,Clear,0,2012-10-17 12:55:00
9:15 AM,53.6,50.0,88,30.00,10.0,Calm,Calm,-,N/A,,Clear,0,2012-10-17 13:15:00
9:35 AM,55.4,51.8,88,30.02,10.0,Calm,Calm,-,N/A,,Clear,0,2012-10-17 13:35:00
9:55 AM,55.4,51.8,88,30.02,10.0,Calm,Calm,-,N/A,,Clear,0,2012-10-17 13:55:00
10:15 AM,57.2,51.8,82,30.02,10.0,Calm,Calm,-,N/A,,Partly Cloudy,0,2012-10-17 14:15:00
10:35 AM,57.2,51.8,82,30.02,10.0,Calm,Calm,-,N/A,,Clear,0,2012-10-17 14:35:00
10:55 AM,60.8,51.8,72,30.02,10.0,Calm,Calm,-,N/A,,Clear,0,2012-10-17 14:55:00
11:15 AM,62.6,51.8,68,30.01,10.0,Calm,Calm,-,N/A,,Partly Cloudy,0,2012-10-17 15:15:00
11:35 AM,62.6,50.0,63,30.02,10.0,Calm,Calm,-,N/A,,Clear,0,2012-10-17 15:35:00
11:55 AM,64.4,50.0,59,30.01,10.0,Calm,Calm,-,N/A,,Clear,0,2012-10-17 15:55:00
12:15 PM,66.2,50.0,56,30.00,10.0,Calm,Calm,-,N/A,,Clear,0,2012-10-17 16:15:00
12:35 PM,69.8,46.4,43,30.00,10.0,Calm,Calm,-,N/A,,Partly Cloudy,0,2012-10-17 16:35:00
12:55 PM,69.8,44.6,40,30.00,10.0,Calm,Calm,-,N/A,,Partly Cloudy,0,2012-10-17 16:55:00
1:15 PM,69.8,44.6,40,29.99,10.0,Calm,Calm,-,N/A,,Clear,0,2012-10-17 17:15:00
1:35 PM,69.8,44.6,40,29.97,10.0,Calm,Calm,-,N/A,,Clear,0,2012-10-17 17:35:00
1:55 PM,69.8,44.6,40,29.96,10.0,Calm,Calm,-,N/A,,Partly Cloudy,0,2012-10-17 17:55:00
2:15 PM,71.6,42.8,35,29.95,10.0,East,5.8,-,N/A,,Clear,100,2012-10-17 18:15:00
2:55 PM,71.6,41.0,33,29.93,10.0,Calm,Calm,-,N/A,,Clear,0,2012-10-17 18:55:00
3:15 PM,73.4,39.2,29,29.92,10.0,Calm,Calm,-,N/A,,Clear,0,2012-10-17 19:15:00
3:35 PM,73.4,37.4,27,29.92,10.0,Calm,Calm,-,N/A,,Clear,0,2012-10-17 19:35:00
3:55 PM,73.4,39.2,29,29.92,10.0,Calm,Calm,-,N/A,,Clear,0,2012-10-17 19:55:00
4:15 PM,73.4,42.8,33,29.92,10.0,SSE,5.8,-,N/A,,Clear,150,2012-10-17 20:15:00
4:35 PM,73.4,42.8,33,29.91,10.0,SSE,3.5,-,N/A,,Clear,160,2012-10-17 20:35:00
5:15 PM,73.4,48.2,41,29.91,10.0,ESE,9.2,-,N/A,,Clear,110,2012-10-17 21:15:00
5:35 PM,71.6,48.2,43,29.91,10.0,SE,6.9,-,N/A,,Clear,130,2012-10-17 21:35:00
5:55 PM,71.6,48.2,43,29.91,10.0,SE,5.8,-,N/A,,Clear,140,2012-10-17 21:55:00
6:15 PM,71.6,50.0,46,29.91,10.0,SE,5.8,-,N/A,,Clear,130,2012-10-17 22:15:00
6:35 PM,69.8,51.8,53,29.91,10.0,ESE,5.8,-,N/A,,Clear,110,2012-10-17 22:35:00
6:55 PM,66.2,51.8,60,29.91,10.0,East,3.5,-,N/A,,Clear,100,2012-10-17 22:55:00
7:15 PM,66.2,51.8,60,29.92,9.0,Calm,Calm,-,N/A,,Clear,0,2012-10-17 23:15:00
7:35 PM,62.6,51.8,68,29.92,10.0,Calm,Calm,-,N/A,,Clear,0,2012-10-17 23:35:00
7:55 PM,60.8,51.8,72,29.93,10.0,Calm,Calm,-,N/A,,Clear,0,2012-10-17 23:55:00
8:15 PM,60.8,51.8,72,29.93,10.0,Calm,Calm,-,N/A,,Clear,0,2012-10-18 00:15:00
8:35 PM,59.0,51.8,77,29.93,10.0,Calm,Calm,-,N/A,,Clear,0,2012-10-18 00:35:00
8:55 PM,57.2,51.8,82,29.94,10.0,Calm,Calm,-,N/A,,Clear,0,2012-10-18 00:55:00
9:15 PM,57.2,51.8,82,29.94,10.0,Calm,Calm,-,N/A,,Clear,0,2012-10-18 01:15:00
9:35 PM,57.2,51.8,82,29.95,10.0,Calm,Calm,-,N/A,,Clear,0,2012-10-18 01:35:00
9:55 PM,57.2,51.8,82,29.95,10.0,Calm,Calm,-,N/A,,Clear,0,2012-10-18 01:55:00
10:15 PM,57.2,53.6,88,29.95,10.0,Calm,Calm,-,N/A,,Clear,0,2012-10-18 02:15:00
10:35 PM,57.2,53.6,88,29.95,10.0,Calm,Calm,-,N/A,,Clear,0,2012-10-18 02:35:00
10:55 PM,55.4,53.6,94,29.95,10.0,Calm,Calm,-,N/A,,Clear,0,2012-10-18 02:55:00
11:15 PM,55.4,53.6,94,29.94,10.0,Calm,Calm,-,N/A,,Clear,0,2012-10-18 03:15:00
11:35 PM,55.4,53.6,94,29.93,10.0,Calm,Calm,-,N/A,,Clear,0,2012-10-18 03:35:00
11:55 PM,55.4,53.6,94,29.93,10.0,Calm,Calm,-,N/A,,Clear,0,2012-10-18 03:55:00